Flag for U.S.A. Weather past 2 weeks in Boca Raton, Florida, U.S.A.

Now
88 °F

Scattered clouds.


Feels Like: 94 °F
Forecast: 80 / 87 °F
Wind: 10 mph from Southeast

Location: Boca Raton Airport

Current Time: May 24, 2015 at 3:51:06 PM

Latest Report: May 24, 2015 at 2:53 PM


Visibility: 10 mi

Pressure: 30.16 "Hg

Humidity: 59%

Dew point: 72 °F

Location of Boca RatonLocation

Historic Weather in Boca Raton — Graph

°F

Boca Raton temperature yesterday

Maximum temperature yesterday: 88 °F (at 10:47 AM)
Minimum temperature yesterday: 75 °F (at 6:55 AM)
Average temperature yesterday: 84 °F

Past Weeks' High & Low Weather Summary

 TemperatureHumidityPressure
High90 °F (May 21, 1:50 PM)94% (May 10, 6:57 AM)30.21 "Hg (May 10, 6:57 AM)
Low72 °F (May 20, 6:47 AM)51% (May 19, 10:53 AM)29.95 "Hg (May 20, 5:55 PM)
Average83 °F68%30.11 "Hg
* Reported May 9 1:55 PM — May 24 1:48 PM, Boca Raton, Weather by CustomWeather, © 2015

Note: Actual official high and low records may vary slightly from our data, if they occured in-between our weather recording intervals... More about our weather records

Advertising

Boca Raton weather history for previous 24 hours

 ConditionsComfort  
Time TempWeatherWind HumidityBarometerVisibility
1:48 PM
Sun, May 24
88 °FScattered clouds.15 mph62%30.17 "Hg10 mi
12:50 PM86 °FBroken clouds.12 mph66%30.18 "Hg10 mi
11:53 AM86 °FBroken clouds.14 mph66%30.20 "Hg10 mi
10:53 AM86 °FScattered clouds.13 mph66%30.20 "Hg10 mi
9:47 AM84 °FScattered clouds.9 mph66%30.19 "Hg10 mi
8:47 AM82 °FScattered clouds.12 mph66%30.18 "Hg10 mi
7:47 AM81 °FScattered clouds.8 mph70%30.17 "Hg10 mi
6:47 AM79 °FPassing clouds.9 mph74%30.16 "Hg10 mi
10:53 PM
Sat, May 23
81 °FPassing clouds.8 mph79%30.18 "Hg10 mi
9:53 PM81 °FPartly cloudy.7 mph79%30.18 "Hg10 mi
8:53 PM81 °FPartly sunny.12 mph74%30.17 "Hg10 mi
7:53 PM82 °FBroken clouds.12 mph74%30.17 "Hg10 mi
6:53 PM84 °FScattered clouds.12 mph70%30.17 "Hg10 mi
5:53 PM86 °FPassing clouds.14 mph66%30.15 "Hg10 mi
4:53 PM86 °FPassing clouds.10 mph66%30.16 "Hg10 mi
3:53 PM88 °FPassing clouds.13 mph62%30.17 "Hg10 mi
Weather by CustomWeather, © 2015

See weather overviewHow to use our weather pages